CW1631 Weather Reports


time (UTC)temp
C
wind
direction
speed
KPH
gust
KPH
rain 1hr
cm
rain 24hr
cm
rain mn
cm
humidity
%
barometer
mb
20260506231441 7 270 0.0 1.6 0.00 1.09 1.09 90 1010.0
20260506230938 7 260 1.6 1.6 0.00 1.09 1.09 90 1009.8
20260506230434 7 255 1.6 1.6 0.00 1.09 1.09 90 1009.9
20260506225931 7 275 3.2 3.2 0.00 1.09 1.09 90 1010.0
20260506225429 7 275 0.0 1.6 0.00 1.09 1.09 90 1009.9
20260506224925 8 278 3.2 4.8 0.00 1.09 1.09 90 1009.7
20260506224423 8 329 3.2 3.2 0.00 1.09 1.09 90 1009.5
20260506223919 8 178 3.2 8.0 0.00 1.09 1.09 90 1009.7
20260506223414 8 267 4.8 4.8 0.00 1.09 1.09 90 1009.4
20260506222912 8 299 8.0 11.3 0.00 1.09 1.09 90 1009.7
20260506222409 8 251 4.8 8.0 0.00 1.09 1.09 89 1009.5
20260506221906 8 331 4.8 4.8 0.00 1.09 1.09 89 1009.4
20260506221403 8 300 6.4 11.3 0.00 1.09 1.09 89 1009.4
20260506220900 8 342 12.9 14.5 0.00 1.09 1.09 90 1009.3
20260506220355 8 303 8.0 9.7 0.00 1.09 1.09 90 1009.3
20260506215852 8 271 14.5 16.1 0.00 1.09 1.09 90 1009.3
20260506215348 8 309 6.4 8.0 0.00 1.09 1.09 90 1009.3
20260506214844 8 311 3.2 3.2 0.00 1.09 1.09 90 1009.3
20260506214341 8 278 3.2 3.2 0.00 1.09 1.09 90 1009.1
20260506213839 8 271 6.4 8.0 0.00 1.09 1.09 91 1008.9
20260506213336 8 322 4.8 8.0 0.00 1.09 1.09 91 1008.9
20260506212833 8 297 4.8 4.8 0.00 1.09 1.09 92 1008.9
20260506212329 8 46 4.8 8.0 0.00 1.09 1.09 94 1008.9
20260506211825 8 284 6.4 9.7 0.00 1.09 1.09 94 1008.4
20260506211321 8 260 1.6 3.2 0.00 1.09 1.09 94 1008.3
20260506210818 8 279 1.6 1.6 0.00 1.09 1.09 94 1008.5
20260506210315 8 293 1.6 3.2 0.13 1.09 1.09 94 1008.3
20260506205812 8 332 8.0 9.7 0.13 1.09 1.09 94 1008.2
20260506205308 8 340 3.2 3.2 0.00 1.07 1.07 94 1008.3
20260506204804 8 311 8.0 11.3 0.00 1.07 1.07 94 1008.3
20260506204302 8 315 3.2 3.2 0.18 1.07 1.07 94 1007.9
20260506203800 8 331 3.2 3.2 0.18 1.07 1.07 94 1008.2
20260506203257 8 335 4.8 4.8 0.00 1.04 1.04 94 1007.8
20260506202754 8 20 4.8 4.8 0.00 1.04 1.04 94 1007.6
20260506202251 8 307 1.6 3.2 0.00 1.04 1.04 95 1007.7
20260506201747 8 44 0.0 1.6 0.00 1.04 1.04 95 1007.6
20260506201244 8 348 1.6 1.6 0.00 1.04 1.04 94 1007.4
20260506200741 8 4 3.2 3.2 0.00 1.04 1.04 95 1007.3
20260506200237 8 313 1.6 1.6 0.13 1.04 1.04 95 1007.4
20260506195734 8 278 4.8 8.0 0.13 1.04 1.04 95 1007.6
20260506195230 8 337 3.2 3.2 0.00 1.02 1.02 95 1007.7
20260506194728 8 282 12.9 16.1 0.18 1.02 1.02 95 1007.6
20260506194224 9 268 4.8 4.8 0.30 1.02 1.02 95 1007.5
20260506193722 9 297 4.8 4.8 0.13 0.99 0.99 95 1007.3
20260506193219 9 250 0.0 0.0 0.00 0.97 0.97 95 1007.5
20260506192715 9 285 0.0 0.0 0.00 0.97 0.97 95 1007.2
20260506192212 9 275 0.0 0.0 0.18 0.97 0.97 95 1007.3
20260506191709 9 50 1.6 1.6 0.18 0.97 0.97 95 1007.0
20260506191205 8 75 3.2 3.2 0.00 0.94 0.94 94 1007.1
20260506190702 9 63 1.6 1.6 0.00 0.94 0.94 94 1007.1
20260506190153 9 70 3.2 3.2 0.00 0.94 0.94 94 1006.8
20260506185650 9 225 0.0 1.6 0.00 0.94 0.94 94 1006.8
20260506185146 9 323 1.6 1.6 0.00 0.94 0.94 94 1006.9
20260506184644 9 308 1.6 3.2 0.00 0.94 0.94 94 1006.9
20260506184141 9 2 0.0 0.0 0.00 0.94 0.94 94 1006.9
20260506183638 9 324 6.4 8.0 0.00 0.94 0.94 94 1006.8
20260506183134 9 280 0.0 0.0 0.00 0.94 0.94 94 1006.5
20260506182631 9 288 4.8 8.0 0.00 0.94 0.94 94 1006.5
20260506182128 9 279 8.0 9.7 0.00 0.94 0.94 94 1006.5
20260506181626 9 323 4.8 4.8 0.00 0.94 0.94 94 1006.3
20260506181123 9 300 1.6 1.6 0.00 0.94 0.94 94 1006.2
20260506180620 9 338 3.2 3.2 0.00 0.94 0.94 94 1006.3
20260506180116 10 352 6.4 8.0 0.13 0.94 0.94 94 1006.3
20260506175613 10 11 9.7 11.3 0.13 0.94 0.94 94 1006.2
20260506175108 10 357 8.0 11.3 0.13 0.94 0.94 93 1006.3
20260506174608 10 295 4.8 8.0 0.00 0.91 0.91 94 1006.0
20260506174103 11 297 4.8 4.8 0.00 0.91 0.91 94 1006.0
20260506173601 11 309 1.6 1.6 0.00 0.91 0.91 94 1005.8
20260506173058 11 314 4.8 4.8 0.00 0.91 0.91 93 1005.7
20260506172556 11 312 4.8 4.8 0.00 0.91 0.91 93 1005.5
20260506172051 12 305 16.1 22.5 0.00 0.91 0.91 92 1005.5
20260506171549 13 309 11.3 14.5 0.00 0.91 0.91 92 1005.4
20260506171047 14 247 3.2 3.2 0.18 0.91 0.91 95 1005.2
20260506170544 14 247 6.4 8.0 0.18 0.91 0.91 94 1005.4
20260506170041 14 225 4.8 4.8 0.00 0.89 0.89 94 1005.6
20260506165540 14 223 4.8 4.8 0.00 0.89 0.89 94 1005.5
20260506165036 14 227 4.8 4.8 0.18 0.89 0.89 94 1005.5
20260506164533 14 199 8.0 9.7 0.18 0.89 0.89 94 1005.6
20260506164030 14 221 9.7 11.3 0.00 0.86 0.86 94 1005.4
20260506163526 14 241 4.8 8.0 0.00 0.86 0.86 93 1005.5
20260506163021 14 249 1.6 1.6 0.00 0.86 0.86 93 1005.5
20260506162518 14 245 11.3 12.9 0.00 0.86 0.86 93 1005.5
20260506162015 14 212 8.0 9.7 0.00 0.86 0.86 93 1005.4
20260506161513 13 210 14.5 14.5 0.00 0.86 0.86 93 1005.4
20260506161009 13 221 8.0 9.7 0.00 0.86 0.86 93 1005.7
20260506160507 13 221 9.7 9.7 0.00 0.86 0.86 93 1005.5
20260506160004 13 234 4.8 4.8 0.13 0.86 0.86 93 1005.7
20260506155502 13 215 9.7 11.3 0.13 0.86 0.86 93 1005.5
20260506153634 13 224 6.4 9.7 0.18 0.84 0.84 94 1005.6
20260506153131 13 240 1.6 1.6 0.13 0.81 0.81 94 1005.8
20260506152628 13 218 8.0 9.7 0.13 0.81 0.81 94 1006.0
20260506152126 13 215 8.0 9.7 0.00 0.79 0.79 94 1006.0
20260506151624 13 231 8.0 9.7 0.18 0.79 0.79 95 1006.0
20260506151121 13 215 4.8 9.7 0.18 0.79 0.79 95 1005.7
20260506150618 13 254 0.0 1.6 0.00 0.76 0.76 95 1005.8
20260506150115 13 260 3.2 3.2 0.13 0.76 0.76 95 1005.9
20260506145612 13 222 4.8 4.8 0.13 0.76 0.76 96 1005.9
20260506145108 13 228 1.6 3.2 0.00 0.74 0.74 96 1005.6
20260506144605 13 275 0.0 1.6 0.00 0.74 0.74 97 1005.5
20260506144102 13 257 0.0 0.0 0.18 0.74 0.74 97 1005.6
20260506143600 13 267 3.2 3.2 0.18 0.74 0.74 96 1005.6
20260506143058 13 258 0.0 1.6 0.00 0.71 0.71 96 1005.8
20260506142556 13 266 0.0 0.0 0.00 0.71 0.71 97 1005.7
20260506142054 12 265 1.6 1.6 0.00 0.71 0.71 96 1005.8
20260506141551 12 288 1.6 1.6 0.00 0.71 0.71 97 1005.9
20260506141050 12 296 1.6 1.6 0.13 0.71 0.71 97 1005.9
20260506140547 12 271 0.0 0.0 0.13 0.71 0.71 97 1006.1
20260506140044 11 282 0.0 1.6 0.18 0.69 0.69 97 1005.9
20260506135541 11 293 1.6 1.6 0.30 0.69 0.69 96 1005.9
20260506135037 11 279 0.0 0.0 0.30 0.66 0.66 96 1006.1
20260506134533 11 298 0.0 0.0 0.30 0.64 0.64 96 1006.2
20260506134029 11 255 0.0 0.0 0.30 0.61 0.61 96 1006.4
20260506133527 10 315 1.6 1.6 0.36 0.58 0.58 96 1006.5
20260506133023 10 332 1.6 3.2 0.30 0.56 0.56 96 1006.5
20260506132521 10 198 1.6 1.6 0.30 0.53 0.53 96 1006.5
20260506132018 10 229 0.0 0.0 0.30 0.51 0.51 96 1006.8
20260506131515 10 220 1.6 3.2 0.43 0.48 0.48 96 1007.1
20260506131011 10 295 1.6 1.6 0.61 0.46 0.46 96 1006.9
20260506130508 10 280 1.6 3.2 0.61 0.41 0.41 96 1006.8
20260506130006 10 271 0.0 0.0 0.48 0.36 0.36 96 1007.1
20260506125504 10 255 0.0 0.0 0.36 0.30 0.30 95 1006.9
20260506125001 10 267 0.0 0.0 0.30 0.28 0.28 95 1007.0
20260506124459 10 267 0.0 0.0 0.13 0.25 0.25 96 1006.6
20260506123957 10 251 0.0 0.0 0.18 0.23 0.23 95 1006.5
20260506123454 10 262 0.0 0.0 0.18 0.23 0.23 95 1006.4
20260506122952 10 289 0.0 0.0 0.00 0.20 0.20 95 1006.3
20260506122448 10 323 0.0 0.0 0.00 0.20 0.20 95 1006.2
20260506121947 10 222 0.0 0.0 0.00 0.20 0.20 95 1006.2
20260506121444 10 296 1.6 1.6 0.13 0.20 0.20 95 1006.4
20260506120940 10 38 4.8 4.8 0.13 0.20 0.20 95 1006.3
20260506120438 10 71 1.6 3.2 0.00 0.18 0.18 95 1006.5
20260506115935 10 283 0.0 0.0 0.00 0.18 0.18 95 1006.8
20260506115433 10 288 0.0 0.0 0.00 0.18 0.18 95 1007.0
20260506114931 10 36 1.6 1.6 0.18 0.18 0.18 95 1006.8
20260506114428 10 95 1.6 3.2 0.18 0.18 0.18 95 1006.8
20260506113927 10 57 1.6 1.6 0.00 0.15 0.15 95 1006.9
20260506113424 10 16 1.6 1.6 0.00 0.15 0.15 95 1007.0
20260506112915 10 348 1.6 1.6 0.00 0.15 0.15 95 1006.8
20260506112413 10 326 1.6 1.6 0.00 0.15 0.15 95 1007.1
20260506111910 10 291 0.0 0.0 0.13 0.15 0.15 94 1007.0
20260506111408 10 341 1.6 1.6 0.13 0.15 0.15 94 1007.1
20260506110905 10 27 1.6 1.6 0.00 0.13 0.13 94 1007.3
20260506110402 10 65 1.6 1.6 0.18 0.13 0.13 94 1007.1
20260506105858 10 105 1.6 1.6 0.18 0.13 0.13 94 1007.1
20260506105355 10 217 0.0 1.6 0.18 0.13 0.13 94 1007.2
20260506104853 10 258 0.0 0.0 0.13 0.10 0.10 94 1007.1
20260506104350 10 243 0.0 1.6 0.13 0.10 0.10 94 1007.2
20260506103848 10 229 0.0 0.0 0.18 0.08 0.08 94 1007.1
20260506103345 10 223 1.6 1.6 0.18 0.08 0.08 94 1007.0
20260506102842 10 241 0.0 1.6 0.00 0.05 0.05 94 1007.1
20260506102340 10 235 0.0 0.0 0.13 0.05 0.05 94 1006.9
20260506101837 10 117 1.6 1.6 0.13 0.05 0.05 93 1006.7
20260506101333 10 185 1.6 1.6 0.00 0.03 0.03 93 1006.6
20260506100831 10 41 1.6 1.6 0.00 0.03 0.03 93 1006.6
20260506100329 10 199 1.6 1.6 0.00 0.03 0.03 93 1006.4
20260506095827 10 264 0.0 0.0 0.00 0.03 0.03 92 1006.6
20260506095324 10 273 0.0 0.0 0.00 0.03 0.03 92 1006.5
20260506094821 10 323 0.0 0.0 0.00 0.03 0.03 92 1006.4
20260506094320 10 63 1.6 3.2 0.00 0.03 0.03 92 1006.5
20260506093817 10 10 1.6 1.6 0.00 0.03 0.03 91 1006.3
20260506093314 10 34 3.2 3.2 0.18 0.03 0.03 91 1006.6
20260506092812 10 64 1.6 1.6 0.18 0.03 0.03 90 1006.7
20260506092310 10 52 1.6 1.6 0.18 0.03 0.03 90 1006.7
20260506091807 10 68 4.8 4.8 0.00 0.00 0.00 89 1006.7
20260506091304 10 82 1.6 3.2 0.00 0.00 0.00 89 1006.8
20260506090802 10 72 1.6 1.6 0.00 0.00 0.00 88 1007.1
20260506090259 10 14 4.8 4.8 0.00 0.00 0.00 88 1006.8
20260506085755 10 58 1.6 1.6 0.00 0.00 0.00 88 1007.0
20260506085252 10 105 3.2 3.2 0.00 0.00 0.00 88 1007.2
20260506084748 10 133 3.2 3.2 0.00 0.00 0.00 88 1007.1
20260506084245 10 244 0.0 1.6 0.00 0.00 0.00 87 1007.2
20260506083742 10 117 3.2 3.2 0.00 0.00 0.00 87 1007.1
20260506083240 10 114 1.6 1.6 0.00 0.00 0.00 87 1007.2
20260506082737 10 61 3.2 3.2 0.00 0.00 0.00 88 1006.9
20260506082232 10 61 1.6 3.2 0.00 0.00 0.00 88 1007.1
20260506081730 10 0 1.6 1.6 0.00 0.00 0.00 88 1007.1
20260506081227 10 341 1.6 1.6 0.00 0.00 0.00 88 1006.9
20260506080726 10 56 3.2 3.2 0.00 0.00 0.00 88 1007.1
20260506080221 10 68 3.2 3.2 0.00 0.00 0.00 88 1006.8
20260506073206 10 301 1.6 1.6 0.00 0.00 0.00 88 1007.3
20260506072702 10 318 1.6 1.6 0.00 0.00 0.00 88 1007.2
20260506072200 10 317 1.6 1.6 0.00 0.00 0.00 87 1007.1
20260506071657 11 336 1.6 1.6 0.00 0.00 0.00 87 1007.2
20260506071155 11 43 1.6 3.2 0.00 0.00 0.00 87 1007.1
20260506070652 11 6 3.2 4.8 0.00 0.00 0.00 87 1007.1
20260506070148 11 11 3.2 3.2 0.00 0.00 0.00 87 1007.5
20260506062126 11 284 0.0 0.0 0.00 0.00 0.00 88 1008.0
20260506061621 10 54 3.2 3.2 0.00 0.00 0.00 88 1007.9
20260506061120 10 39 3.2 3.2 0.00 0.00 0.00 88 1007.7
20260506060618 10 276 0.0 0.0 0.00 0.00 0.00 88 1008.1
20260506060114 10 299 0.0 1.6 0.00 0.00 0.00 88 1008.2
20260506051046 11 298 0.0 0.0 0.00 0.00 0.00 86 1008.7
20260506050544 11 148 1.6 3.2 0.00 0.00 0.00 85 1009.2
20260506045035 11 359 3.2 4.8 0.00 0.00 0.00 83 1009.2
20260506044533 11 318 1.6 1.6 0.00 0.00 0.00 84 1009.1
20260506044029 11 312 1.6 1.6 0.00 0.00 0.00 83 1008.8
20260506043526 11 27 1.6 1.6 0.00 0.00 0.00 83 1008.7
20260506043025 11 67 1.6 1.6 0.00 0.00 0.00 83 1008.6
20260506042523 11 75 1.6 1.6 0.00 0.00 0.00 83 1008.9
20260506042021 11 50 1.6 3.2 0.00 0.00 0.00 83 1008.8
20260506041520 12 50 1.6 1.6 0.00 0.00 0.00 82 1009.1
20260506041016 12 110 1.6 3.2 0.00 0.00 0.00 82 1008.9
20260506040514 12 58 1.6 1.6 0.00 0.00 0.00 81 1008.9
20260506040009 12 49 1.6 3.2 0.00 0.05 0.05 80 1009.3
20260506035507 12 18 1.6 3.2 0.00 0.05 0.05 80 1009.4
20260506035003 12 59 1.6 3.2 0.00 0.05 0.05 80 1009.3
20260506034501 12 44 1.6 3.2 0.00 0.05 0.05 80 1009.3
20260506033957 12 333 3.2 3.2 0.00 0.05 0.05 80 1009.3
20260506033455 12 322 1.6 1.6 0.00 0.05 0.05 80 1009.4
20260506032951 12 18 3.2 3.2 0.00 0.05 0.05 80 1009.1
20260506032449 12 7 1.6 3.2 0.00 0.05 0.05 80 1009.2
20260506031945 12 47 4.8 4.8 0.00 0.05 0.05 80 1009.2
20260506031443 13 342 1.6 1.6 0.00 0.05 0.05 79 1009.4
20260506030940 13 324 4.8 4.8 0.00 0.05 0.05 79 1009.4
20260506030438 13 17 1.6 3.2 0.00 0.05 0.05 78 1009.3
20260506025934 13 348 4.8 4.8 0.00 0.05 0.05 77 1009.4
20260506025432 13 353 4.8 4.8 0.00 0.05 0.05 76 1009.4
20260506024928 13 331 4.8 4.8 0.00 0.05 0.05 76 1009.5
20260506024425 13 283 1.6 3.2 0.00 0.05 0.05 76 1009.6
20260506023921 13 340 3.2 4.8 0.00 0.05 0.05 78 1009.5
20260506023418 13 9 3.2 4.8 0.00 0.05 0.05 79 1009.2
20260506022915 13 311 8.0 9.7 0.00 0.05 0.05 80 1009.4
20260506022413 14 143 6.4 9.7 0.00 0.05 0.05 81 1009.4
20260506021910 14 304 1.6 3.2 0.00 0.05 0.05 81 1009.1
20260506021407 14 13 4.8 4.8 0.00 0.05 0.05 81 1009.2
20260506020904 14 7 16.1 17.7 0.00 0.05 0.05 81 1008.8
20260506020402 15 358 11.3 14.5 0.00 0.05 0.05 83 1008.9
20260506015859 15 341 9.7 12.9 0.00 0.05 0.05 83 1008.9
20260506015356 15 329 8.0 9.7 0.00 0.05 0.05 83 1008.8
20260506014853 15 292 8.0 11.3 0.00 0.05 0.05 83 1008.8
20260506014350 15 9 11.3 12.9 0.00 0.05 0.05 82 1008.9
20260506013846 16 324 6.4 8.0 0.00 0.05 0.05 83 1008.5
20260506013344 16 326 12.9 14.5 0.00 0.05 0.05 83 1008.2
20260506012840 16 347 3.2 4.8 0.00 0.05 0.05 82 1008.2
20260506012337 16 31 6.4 8.0 0.00 0.05 0.05 82 1008.1
20260506011835 16 297 3.2 3.2 0.00 0.05 0.05 81 1008.2
20260506011331 16 201 1.6 1.6 0.00 0.05 0.05 81 1008.0
20260506010829 16 235 1.6 1.6 0.00 0.05 0.05 81 1008.1
20260506010327 16 256 0.0 0.0 0.00 0.05 0.05 81 1007.9
20260506005823 16 309 3.2 4.8 0.00 0.05 0.05 82 1007.9
20260506005320 16 302 1.6 1.6 0.00 0.05 0.05 83 1007.7
20260506004816 16 275 1.6 1.6 0.00 0.05 0.05 83 1007.7
20260506004314 16 290 1.6 1.6 0.00 0.05 0.05 83 1007.4
20260506003809 16 287 6.4 9.7 0.00 0.05 0.05 85 1007.4
20260506003306 16 285 4.8 4.8 0.00 0.05 0.05 86 1007.4
20260506002802 16 306 4.8 4.8 0.00 0.05 0.05 85 1007.3
20260506002259 16 271 3.2 3.2 0.00 0.05 0.05 84 1007.0
20260506001754 16 299 3.2 3.2 0.00 0.05 0.05 83 1006.8
20260506001252 17 260 0.0 0.0 0.00 0.05 0.05 82 1007.1
20260506000749 17 266 0.0 0.0 0.00 0.05 0.05 82 1006.6
20260506000247 17 266 0.0 1.6 0.00 0.05 0.05 81 1006.8
20260505235743 17 252 1.6 1.6 0.00 0.05 0.05 81 1006.9
20260505235241 17 227 4.8 4.8 0.00 0.05 0.05 81 1006.8
20260505234738 17 250 3.2 3.2 0.00 0.05 0.05 82 1006.7
20260505234235 17 251 0.0 0.0 0.00 0.05 0.05 82 1006.7
20260505233731 17 244 0.0 1.6 0.00 0.05 0.05 82 1006.8
20260505233230 17 259 1.6 1.6 0.00 0.05 0.05 81 1006.7
20260505232726 17 266 3.2 3.2 0.00 0.05 0.05 80 1006.6
20260505232224 17 237 3.2 3.2 0.00 0.05 0.05 81 1006.5